This is the latest recevied weather packets stored in our database for station/object AD4CG. If no packets are shown the sender has not sent any weather packets the latest 10 day(s).
| Time | Temp. | Humidity | Pressure | Rain* | Wind** | Luminosity | Snow |
|---|---|---|---|---|---|---|---|
| 1777772422 | 10° C | 100% | 1014.2 hPa | 0 mm | - | - | - |
| 1777769859 | 10.56° C | 100% | 1013.5 hPa | 0 mm | - | - | - |
| 1777766381 | 11.11° C | 100% | 1012.9 hPa | 0 mm | - | - | - |
| 1777766066 | 11.11° C | 100% | 1012.9 hPa | 0 mm | - | - | - |
| 1777762573 | 11.67° C | 100% | 1012.9 hPa | 0 mm | - | - | - |
| 1777755514 | 11.67° C | 100% | 1012.2 hPa | 0.25 mm | - | - | - |
| 1777753933 | 11.67° C | 100% | 1012.2 hPa | 0 mm | - | - | - |
| 1777752990 | 11.67° C | 100% | 1012.2 hPa | 0 mm | - | - | - |
| 1777750445 | 11.67° C | 100% | 1012.9 hPa | 0.25 mm | - | - | - |
| 1777744753 | 11.11° C | 100% | 1012.9 hPa | 0 mm | - | - | - |
| 1777740405 | 11.11° C | 100% | 1012.9 hPa | 0.51 mm | - | - | - |
| 1777736563 | 11.67° C | 100% | 1013.5 hPa | 0.76 mm | - | - | - |
| 1777735909 | 11.67° C | 100% | 1013.9 hPa | 1.02 mm | - | - | - |
| 1777735261 | 11.67° C | 100% | 1013.5 hPa | 1.02 mm | - | - | - |
| 1777732069 | 11.67° C | 100% | 1014.2 hPa | 0.51 mm | - | - | - |
| 1777730167 | 11.67° C | 100% | 1013.2 hPa | 0.25 mm | - | - | - |
| 1777727967 | 11.11° C | 100% | 1012.9 hPa | 0.51 mm | - | - | - |
| 1777727653 | 11.11° C | 100% | 1012.9 hPa | 0.51 mm | - | - | - |
| 1777725146 | 11.11° C | 100% | 1012.9 hPa | 0.51 mm | - | - | - |
| 1777724833 | 11.11° C | 100% | 1012.9 hPa | 0.51 mm | - | - | - |
| 1777722331 | 11.67° C | 100% | 1012.5 hPa | 0.25 mm | - | - | - |
| 1777721704 | 11.67° C | 100% | 1012.9 hPa | 0.51 mm | - | - | - |
| 1777717636 | 11.67° C | 100% | 1012.9 hPa | 0.76 mm | - | - | - |
| 1777717323 | 11.67° C | 100% | 1012.9 hPa | 0.51 mm | - | - | - |
| 1777716385 | 11.67° C | 100% | 1012.5 hPa | 0.51 mm | - | - | - |
* Rain latest hour (hover to see other rain measurements)
** Current wind speed in m/s (hover to see current wind gust speed)